Regional Weather Roundup
Issued by NWS Newport/Morehead, NC

Current Version | Previous Version | Graphics & Text | Print | Product List | Glossary On
Versions: 1 2 3 4 5 6 7 8 9 10 11 12 13 14 15 16 17 18 19 20 21 22 23 24 25 26 27 28 29 30 31 32 33 34 35 36 37 38 39 40 41 42 43 44 45 46 47 48 49 50
000 ASUS42 KMHX 230314 RWRMHX WEATHER ROUNDUP FOR EASTERN NORTH CAROLINA NATIONAL WEATHER SERVICE NEWPORT/MOREHEAD CITY NC 1100 PM EDT TUE AUG 22 2017 NOTE: "FAIR" INDICATES FEW OR NO CLOUDS BELOW 12,000 FEET WITH NO SIGNIFICANT WEATHER AND/OR OBSTRUCTIONS TO VISIBILITY NCZ015>017-031-032-045>047-102-103-230400- NORTH COAST CITY SKY/WX TMP DP RH WIND PRES REMARKS EDENTON CLEAR 82 76 84 SW12 29.95F ELIZABETH CITY CLEAR 81 77 88 S10 29.93F KITTY HAWK CLEAR 81 74 81 SW6 29.94F MANTEO CLEAR 81 76 84 SW16G22 29.96F $$ NCZ045>047-081-094-103-104-230400- CENTRAL COAST CITY SKY/WX TMP DP RH WIND PRES REMARKS FRISCO CLEAR 83 78 85 SW10G18 29.98F $$ NCZ095-097-098-100-101-230400- SOUTHERN COAST CITY SKY/WX TMP DP RH WIND PRES REMARKS BEAUFORT CLEAR 82 77 84 SW15 29.98F CEDAR ISLAND NOT AVBL JACKSONVILLE CLEAR 78 77 96 SW3 29.98S PINEY ISLAND CLEAR N/A N/A N/A S6 29.98S WILMINGTON CLEAR 80 75 84 S6 29.98F $$ NCZ011>013-027>030-043-044-078>080-089-090>093-098-230400- COASTAL PLAIN CITY SKY/WX TMP DP RH WIND PRES REMARKS AHOSKIE N/A 76 75 95 S6 29.93S CLINTON CLEAR 78 76 93 CALM 29.98S ELIZABETHTOWN NOT AVBL GOLDSBORO CLEAR 80 73 78 W6 29.96S GREENVILLE PTCLDY 81 77 89 SW9 29.97F HAVELOCK CLEAR 80 75 84 SW7 29.99S KENANSVILLE CLEAR 77 75 94 S3 29.97F KINSTON CLEAR 80 74 81 S10 29.97S NEW BERN CLEAR 78 77 96 SW7 29.99S RICHLANDS CLEAR 76 75 97 S5 29.99S ROCKY MOUNT CLEAR 80 75 84 S10 29.94S WASHINGTON CLEAR 79 76 90 SW7 29.96F WHITEVILLE CLEAR 78 75 88 S3 29.98S $$ AMZ130-135-150-152-154-156-158-170-250-252-270-ANZ085-086-088-633-658-670-230400- MARINE OBSERVATIONS STATION/POSITION TIME TEMP WIND PRES WAVE SWELL AIR SEA DIR/SP/G HT/PER HT/PER (UTC) (F) (DEG/KT/KT) (MB) (FT/S) (FT/S) CHESAPEAKE LIGHT NOT AVBL 64 E VA BEACH 0250 80 80 200/ 16/ 19 1013.7 4/10 3/10 DUCK 0236 82 72 200/ 14/ 18 1013.4 2 E DUCK 0300 76 N/A 3/11 2/11 OREGON INLET 0236 83 87 200/ 19/ 22 1014.4 13E OREGON INLT 0248 80 N/A 4/10 3/10 HATTERAS CG 0236 82 84 220/ 11/ 15 1015.2 DIAMOND BUOY 0250 84 85 220/ 17/ 21 1015.2 5/ 9 3/ 9 CAPE LOOKOUT 0300 82 220/ 10/ 13 1015.2 BEAUFORT LAB 0236 83 81 210/ 10/ 15 1014.9 30 SE NEW RVR IN 0208 81 84 230/ 14/ 17 1015.8 30 SE NEW RVR IN 0243 84 N/A 4/ 9 2/11 27 SE WRIGHTSVLE 0208 83 84 200/ 14/ 19 1015.7 5 SE WRIGHTSVLE 0208 83 83 220/ 12/ 17 1015.1 225 S CAPE HAT 0250 82 84 150/ 4/ 6 1016.9 4/ 9 3/ 9 41 SE CHARLESTON 0300 83 84 210/ 12/ 14 1015.4 $$

USA.gov is the U.S. government's official web portal to all federal, state and local government web resources and services.